Hamilton Island, Australia

6:56 PM AEST on June 26, 2017 (GMT +1000)
Hamilton Island

Weather History for YBHM - December, 2013

Change the Weather History Date:

Friday, December 27, 2013

  Actual Average Record
Temperature  
Mean Temperature 79 °F -  
Max Temperature 84 °F - - ()
Min Temperature 74 °F - - ()
Cooling Degree Days 14    
Growing Degree Days 29 (Base 50)    
Moisture  
Dew Point 70 °F    
Average Humidity 74    
Maximum Humidity 89    
Minimum Humidity 57    
Precipitation  
Precipitation 0.00 in - - ()
Sea Level Pressure  
Sea Level Pressure 29.80 in    
Wind  
Wind Speed 5 mph ()    
Max Wind Speed 16 mph    
Max Gust Speed -    
Visibility 6.2 miles    
Events      
T = Trace of Precipitation, MM = Missing Value Source: Averaged Metar Reports

Daily Weather History Graph

Daily Weather History Graph

Search for Another Location

Airport or City:

Trip Planner

Search our weather history database for the weather conditions in past years. The results will help you decide how hot, cold, wet, or windy it might be!

Date:

Astronomy

Dec. 27, 2013 Rise Set
Actual Time 5:24 AM AEST 6:45 PM AEST
Civil Twilight 4:59 AM AEST 7:10 PM AEST
Nautical Twilight 4:30 AM AEST 7:39 PM AEST
Astronomical Twilight 3:59 AM AEST 8:10 PM AEST
Moon 12:32 AM AEST (12/27) 1:24 PM AEST (12/27)
Length of Visible Light 14h 10m
Length of Day
13h 21m
Waning Crescent, 35% of the Moon is Illuminated
Dec 27
Waning Crescent
Jan 1
New
Jan 8
First Quarter
Jan 16
Full
Jan 24
Last Quarter

Hourly Weather History & Observations

Time (AEST) Temp. Heat Index Dew Point Humidity Pressure Visibility Wind Dir Wind Speed Gust Speed Precip Events Conditions
12:00 AM 76 °F - 70 °F 76% 29.84 in - NNW 4.6 mph - -  
12:00 AM 75.2 °F - 69.8 °F 83% 29.83 in 6.2 mi NNW 4.6 mph - N/A   Unknown
12:30 AM 75.2 °F - 71.6 °F 89% 29.83 in 6.2 mi WNW 3.5 mph - N/A   Unknown
1:00 AM 75.2 °F - 69.8 °F 83% 29.83 in 6.2 mi Calm Calm - N/A   Unknown
1:30 AM 75.2 °F - 71.6 °F 89% 29.80 in 6.2 mi Calm Calm - N/A   Unknown
2:00 AM 75.2 °F - 71.6 °F 89% 29.80 in 6.2 mi NW 4.6 mph - N/A   Unknown
2:30 AM 75.2 °F - 71.6 °F 89% 29.80 in 6.2 mi NW 4.6 mph - N/A   Unknown
3:00 AM 75 °F - 71 °F 85% 29.79 in - Calm Calm - -  
3:00 AM 75.2 °F - 71.6 °F 89% 29.80 in 6.2 mi Calm Calm - N/A   Unknown
3:30 AM 75.2 °F - 71.6 °F 89% 29.80 in 6.2 mi Calm Calm - N/A   Unknown
4:00 AM 75.2 °F - 71.6 °F 89% 29.80 in 6.2 mi NW 2.3 mph - N/A   Unknown
4:30 AM 73.4 °F - 69.8 °F 88% 29.80 in 6.2 mi NNW 4.6 mph - N/A   Unknown
5:00 AM 75.2 °F - 71.6 °F 89% 29.80 in 6.2 mi WNW 3.5 mph - N/A   Unknown
5:30 AM 75.2 °F - 71.6 °F 89% 29.83 in 6.2 mi WNW 3.5 mph - N/A   Unknown
6:00 AM 76 °F - 71 °F 79% 29.83 in - Calm Calm - -  
6:00 AM 75.2 °F - 71.6 °F 89% 29.83 in 6.2 mi Calm Calm - N/A   Unknown
6:30 AM 77.0 °F - 71.6 °F 83% 29.83 in 6.2 mi NW 3.5 mph - N/A   Unknown
7:00 AM 77.0 °F - 71.6 °F 83% 29.83 in 6.2 mi NNW 2.3 mph - N/A   Unknown
7:30 AM 78.8 °F - 69.8 °F 74% 29.83 in 6.2 mi NW 4.6 mph - N/A   Unknown
8:00 AM 78.8 °F - 69.8 °F 74% 29.86 in 6.2 mi WNW 6.9 mph - N/A   Unknown
8:30 AM 78.8 °F - 69.8 °F 74% 29.86 in 6.2 mi WNW 5.8 mph - N/A   Unknown
9:00 AM 81 °F - 70 °F 63% 29.84 in - WNW 3.5 mph - -  
9:00 AM 80.6 °F 83.9 °F 69.8 °F 70% 29.83 in 6.2 mi WNW 3.5 mph - N/A   Unknown
9:30 AM 84.2 °F 89.6 °F 71.6 °F 66% 29.83 in 6.2 mi SSE 6.9 mph - N/A   Unknown
10:00 AM 82.4 °F 86.3 °F 69.8 °F 66% 29.83 in 6.2 mi South 6.9 mph - N/A   Unknown
10:30 AM 82.4 °F 86.3 °F 69.8 °F 66% 29.83 in 6.2 mi SE 5.8 mph - N/A   Unknown
11:00 AM 82.4 °F 86.3 °F 69.8 °F 66% 29.83 in 6.2 mi ESE 8.1 mph - N/A   Unknown
11:30 AM 84.2 °F 89.6 °F 71.6 °F 66% 29.83 in 6.2 mi ESE 9.2 mph - N/A   Unknown
12:00 PM 83 °F - 71 °F 59% 29.80 in - East 9.2 mph - -  
12:00 PM 82.4 °F 87.2 °F 71.6 °F 70% 29.80 in 6.2 mi East 9.2 mph - N/A   Unknown
12:30 PM 84.2 °F 88.4 °F 69.8 °F 62% 29.80 in 6.2 mi East 11.5 mph - N/A   Unknown
1:00 PM 82.4 °F 86.3 °F 69.8 °F 66% 29.77 in 6.2 mi East 13.8 mph - N/A   Unknown
1:30 PM 82.4 °F 86.3 °F 69.8 °F 66% 29.77 in 6.2 mi East 15.0 mph - N/A   Unknown
2:00 PM 82.4 °F 86.3 °F 69.8 °F 66% 29.77 in 6.2 mi East 16.1 mph - N/A   Unknown
2:30 PM 82.4 °F 86.3 °F 69.8 °F 66% 29.74 in 6.2 mi East 13.8 mph - N/A   Unknown
3:00 PM 83 °F - 70 °F 57% 29.74 in - East 15.0 mph - -  
3:00 PM 82.4 °F 86.3 °F 69.8 °F 66% 29.74 in 6.2 mi East 15.0 mph - N/A   Unknown
3:30 PM 82.4 °F 85.4 °F 68.0 °F 62% 29.74 in 6.2 mi East 15.0 mph - N/A   Unknown
4:00 PM 82.4 °F 86.3 °F 69.8 °F 66% 29.74 in 6.2 mi East 15.0 mph - N/A   Unknown
4:30 PM 82.4 °F 86.3 °F 69.8 °F 66% 29.74 in 6.2 mi East 12.7 mph - N/A   Unknown
5:00 PM 82.4 °F 86.3 °F 69.8 °F 66% 29.74 in 6.2 mi ENE 11.5 mph - N/A   Unknown
5:30 PM 82.4 °F 86.3 °F 69.8 °F 66% 29.74 in 6.2 mi ENE 9.2 mph - N/A   Unknown
6:00 PM 82 °F - 69 °F 57% 29.75 in - NNE 8.1 mph - -  
6:00 PM 82.4 °F 86.3 °F 69.8 °F 66% 29.74 in 6.2 mi NNE 8.1 mph - N/A   Unknown
6:30 PM 80.6 °F 83.9 °F 69.8 °F 70% 29.74 in 6.2 mi NNE 9.2 mph - N/A   Unknown
7:00 PM 80.6 °F 83.2 °F 68.0 °F 65% 29.77 in 6.2 mi NNE 9.2 mph - N/A   Unknown
7:30 PM 78.8 °F - 69.8 °F 74% 29.77 in 6.2 mi NNE 8.1 mph - N/A   Unknown
8:00 PM 78.8 °F - 68.0 °F 69% 29.77 in 6.2 mi North 4.6 mph - N/A   Unknown
8:30 PM 78.8 °F - 69.8 °F 74% 29.80 in 6.2 mi North 8.1 mph - N/A   Unknown
9:00 PM 79 °F - 69 °F 63% 29.80 in - North 5.8 mph - -  
9:00 PM 78.8 °F - 68.0 °F 69% 29.80 in 6.2 mi North 5.8 mph - N/A   Unknown
9:30 PM 78.8 °F - 69.8 °F 74% 29.83 in 6.2 mi North 5.8 mph - N/A   Unknown
10:00 PM 78.8 °F - 69.8 °F 74% 29.83 in 6.2 mi North 8.1 mph - N/A   Unknown
10:30 PM 78.8 °F - 71.6 °F 78% 29.83 in 6.2 mi North 8.1 mph - N/A   Unknown
11:00 PM 78.8 °F - 71.6 °F 78% 29.83 in 6.2 mi North 9.2 mph - N/A   Unknown
11:30 PM 78.8 °F - 71.6 °F 78% 29.83 in 6.2 mi North 6.9 mph - N/A   Unknown